Time,TemperatureF,DewpointF,PressureIn,WindDirection,WindDirectionDegrees,WindSpeedMPH,WindSpeedGustMPH,Humidity,HourlyPrecipIn,Conditions,Clouds,dailyrainin,SoftwareType,DateUTC
2013-08-11 00:00:00,67.5,55.8,30.06,East,90,2.0,2.0,66,0.00,,,0.00,meteohub,2013-08-11 05:00:00,
2013-08-11 00:05:00,67.6,55.9,30.06,East,90,3.0,3.0,66,0.00,,,0.00,meteohub,2013-08-11 05:05:00,
2013-08-11 00:10:00,67.6,55.9,30.06,East,90,0.0,3.0,66,0.00,,,0.00,meteohub,2013-08-11 05:10:00,
2013-08-11 00:16:00,67.5,55.8,30.06,SE,135,0.0,3.0,66,0.00,,,0.00,meteohub,2013-08-11 05:16:00,
2013-08-11 00:21:00,67.5,55.8,30.06,East,90,0.0,3.0,66,0.00,,,0.00,meteohub,2013-08-11 05:21:00,
2013-08-11 00:26:00,67.6,55.9,30.06,East,90,2.0,0.0,66,0.00,,,0.00,meteohub,2013-08-11 05:26:00,
2013-08-11 00:31:00,67.6,55.9,30.06,SE,135,3.0,3.0,66,0.00,,,0.00,meteohub,2013-08-11 05:31:00,
2013-08-11 00:37:00,67.5,55.8,30.06,SE,135,2.0,3.0,66,0.00,,,0.00,meteohub,2013-08-11 05:37:00,
2013-08-11 00:42:00,67.3,55.6,30.06,SE,135,2.0,3.0,66,0.00,,,0.00,meteohub,2013-08-11 05:42:00,
2013-08-11 00:47:00,67.3,55.6,30.06,SE,135,2.0,3.0,66,0.00,,,0.00,meteohub,2013-08-11 05:47:00,
2013-08-11 00:53:00,67.1,55.4,30.06,SE,135,3.0,3.0,66,0.00,,,0.00,meteohub,2013-08-11 05:53:00,
2013-08-11 00:58:00,66.7,55.4,30.07,SE,135,3.0,3.0,67,0.00,,,0.00,meteohub,2013-08-11 05:58:00,
2013-08-11 01:03:00,66.6,55.2,30.07,SE,135,3.0,4.0,67,0.00,,,0.00,meteohub,2013-08-11 06:03:00,
2013-08-11 01:09:00,66.4,55.9,30.07,East,90,4.0,4.0,69,0.00,,,0.00,meteohub,2013-08-11 06:09:00,
2013-08-11 01:14:00,66.6,55.6,30.08,SE,135,2.0,4.0,68,0.00,,,0.00,meteohub,2013-08-11 06:14:00,
2013-08-11 01:20:00,66.6,55.6,30.07,SE,135,2.0,4.0,68,0.00,,,0.00,meteohub,2013-08-11 06:20:00,
2013-08-11 01:25:00,66.7,55.8,30.07,SE,135,2.0,4.0,68,0.00,,,0.00,meteohub,2013-08-11 06:25:00,
2013-08-11 01:30:00,66.7,55.4,30.07,SE,135,2.0,3.0,67,0.00,,,0.00,meteohub,2013-08-11 06:30:00,
2013-08-11 01:36:00,66.6,55.6,30.07,SE,135,3.0,3.0,68,0.00,,,0.00,meteohub,2013-08-11 06:36:00,
2013-08-11 01:41:00,66.6,55.6,30.07,SE,135,2.0,4.0,68,0.00,,,0.00,meteohub,2013-08-11 06:41:00,
2013-08-11 01:47:00,66.6,55.6,30.07,SE,135,3.0,4.0,68,0.00,,,0.00,meteohub,2013-08-11 06:47:00,
2013-08-11 01:52:00,66.7,55.4,30.07,SE,135,2.0,4.0,67,0.00,,,0.00,meteohub,2013-08-11 06:52:00,
2013-08-11 01:57:00,66.4,55.6,30.07,SE,135,2.0,4.0,68,0.00,,,0.00,meteohub,2013-08-11 06:57:00,
2013-08-11 02:02:00,66.2,55.4,30.07,SE,135,3.0,3.0,68,0.00,,,0.00,meteohub,2013-08-11 07:02:00,
2013-08-11 02:07:00,66.4,55.6,30.06,East,90,2.0,3.0,68,0.00,,,0.00,meteohub,2013-08-11 07:07:00,
2013-08-11 02:12:00,66.7,55.4,30.06,SE,135,4.0,4.0,67,0.00,,,0.00,meteohub,2013-08-11 07:12:00,
2013-08-11 02:17:00,66.6,55.2,30.07,SE,135,3.0,4.0,67,0.00,,,0.00,meteohub,2013-08-11 07:17:00,
2013-08-11 02:23:00,66.2,55.4,30.06,South,180,3.0,4.0,68,0.00,,,0.00,meteohub,2013-08-11 07:23:00,
2013-08-11 02:28:00,66.2,55.4,30.06,SE,135,4.0,4.0,68,0.00,,,0.00,meteohub,2013-08-11 07:28:00,
2013-08-11 02:33:00,65.8,55.8,30.06,South,180,4.0,4.0,70,0.00,,,0.00,meteohub,2013-08-11 07:33:00,
2013-08-11 02:39:00,65.3,56.1,30.06,SE,135,4.0,4.0,72,0.00,,,0.00,meteohub,2013-08-11 07:39:00,
2013-08-11 02:44:00,64.9,56.5,30.06,SE,135,4.0,4.0,74,0.00,,,0.00,meteohub,2013-08-11 07:44:00,
2013-08-11 02:50:00,64.8,56.3,30.06,SE,135,3.0,4.0,74,0.00,,,0.00,meteohub,2013-08-11 07:50:00,
2013-08-11 02:55:00,64.6,56.1,30.06,SE,135,2.0,4.0,74,0.00,,,0.00,meteohub,2013-08-11 07:55:00,
2013-08-11 03:00:00,64.4,55.9,30.06,East,90,0.0,4.0,74,0.00,,,0.00,meteohub,2013-08-11 08:00:00,
2013-08-11 03:06:00,64.4,55.9,30.07,East,90,0.0,3.0,74,0.00,,,0.00,meteohub,2013-08-11 08:06:00,
2013-08-11 03:12:00,64.4,55.6,30.07,East,90,0.0,2.0,73,0.00,,,0.00,meteohub,2013-08-11 08:12:00,
2013-08-11 03:17:00,64.4,55.6,30.07,SE,135,0.0,1.0,73,0.00,,,0.00,meteohub,2013-08-11 08:17:00,
2013-08-11 03:22:00,64.4,55.6,30.07,SW,225,2.0,2.0,73,0.00,,,0.00,meteohub,2013-08-11 08:22:00,
2013-08-11 03:27:00,64.4,55.6,30.07,East,90,2.0,2.0,73,0.00,,,0.00,meteohub,2013-08-11 08:27:00,
2013-08-11 03:32:00,64.6,55.8,30.07,SE,135,3.0,3.0,73,0.00,,,0.00,meteohub,2013-08-11 08:32:00,
2013-08-11 03:37:00,64.8,55.9,30.07,SW,225,2.0,3.0,73,0.00,,,0.00,meteohub,2013-08-11 08:37:00,
2013-08-11 03:42:00,64.8,55.9,30.06,SE,135,0.0,4.0,73,0.00,,,0.00,meteohub,2013-08-11 08:42:00,
2013-08-11 03:47:00,64.8,56.3,30.06,South,180,2.0,4.0,74,0.00,,,0.00,meteohub,2013-08-11 08:47:00,
2013-08-11 03:52:00,64.6,56.5,30.06,West,270,2.0,4.0,75,0.00,,,0.00,meteohub,2013-08-11 08:52:00,
2013-08-11 03:58:00,64.4,56.3,30.06,SE,135,5.0,5.0,75,0.00,,,0.00,meteohub,2013-08-11 08:58:00,
2013-08-11 04:03:00,64.6,56.5,30.06,South,180,2.0,4.0,75,0.00,,,0.00,meteohub,2013-08-11 09:03:00,
2013-08-11 04:08:00,64.6,56.8,30.06,SW,225,2.0,5.0,76,0.00,,,0.00,meteohub,2013-08-11 09:08:00,
2013-08-11 04:13:00,64.4,56.7,30.06,SE,135,2.0,5.0,76,0.00,,,0.00,meteohub,2013-08-11 09:13:00,
2013-08-11 04:18:00,64.4,56.7,30.05,South,180,0.0,2.0,76,0.00,,,0.00,meteohub,2013-08-11 09:18:00,
2013-08-11 04:24:00,64.2,56.8,30.05,SE,135,2.0,3.0,77,0.00,,,0.00,meteohub,2013-08-11 09:24:00,
2013-08-11 04:29:00,63.9,57.2,30.05,South,180,2.0,3.0,79,0.00,,,0.00,meteohub,2013-08-11 09:29:00,
2013-08-11 04:34:00,63.7,57.4,30.04,SE,135,2.0,4.0,80,0.00,,,0.00,meteohub,2013-08-11 09:34:00,
2013-08-11 04:39:00,63.1,57.2,30.05,SE,135,2.0,4.0,81,0.00,,,0.00,meteohub,2013-08-11 09:39:00,
2013-08-11 04:45:00,62.8,56.8,30.05,SE,135,3.0,4.0,81,0.00,,,0.00,meteohub,2013-08-11 09:45:00,
2013-08-11 04:50:00,62.8,56.8,30.05,SE,135,3.0,4.0,81,0.00,,,0.00,meteohub,2013-08-11 09:50:00,
2013-08-11 04:55:00,62.8,56.8,30.05,SE,135,2.0,4.0,81,0.00,,,0.00,meteohub,2013-08-11 09:55:00,
2013-08-11 05:01:00,62.8,57.2,30.06,South,180,2.0,4.0,82,0.00,,,0.00,meteohub,2013-08-11 10:01:00,
2013-08-11 05:06:00,62.6,57.0,30.06,SW,225,2.0,3.0,82,0.00,,,0.00,meteohub,2013-08-11 10:06:00,
2013-08-11 05:11:00,62.4,57.2,30.05,South,180,0.0,4.0,83,0.00,,,0.00,meteohub,2013-08-11 10:11:00,
2013-08-11 05:17:00,62.2,57.0,30.06,South,180,2.0,4.0,83,0.00,,,0.00,meteohub,2013-08-11 10:17:00,
2013-08-11 05:22:00,62.2,57.4,30.06,SE,135,2.0,4.0,84,0.00,,,0.00,meteohub,2013-08-11 10:22:00,
2013-08-11 05:27:00,62.2,57.4,30.06,South,180,1.0,3.0,84,0.00,,,0.00,meteohub,2013-08-11 10:27:00,
2013-08-11 05:32:00,61.7,56.8,30.06,South,180,1.0,4.0,84,0.00,,,0.00,meteohub,2013-08-11 10:32:00,
2013-08-11 05:38:00,61.7,57.2,30.05,South,180,0.0,4.0,85,0.00,,,0.00,meteohub,2013-08-11 10:38:00,
2013-08-11 05:43:00,61.7,57.2,30.05,SW,225,2.0,2.0,85,0.00,,,0.00,meteohub,2013-08-11 10:43:00,
2013-08-11 05:49:00,61.9,57.4,30.05,SE,135,3.0,3.0,85,0.00,,,0.00,meteohub,2013-08-11 10:49:00,
2013-08-11 05:54:00,62.1,57.6,30.05,South,180,2.0,3.0,85,0.00,,,0.00,meteohub,2013-08-11 10:54:00,
2013-08-11 06:00:00,62.1,57.6,30.06,SW,225,5.0,5.0,85,0.00,,,0.00,meteohub,2013-08-11 11:00:00,
2013-08-11 06:05:00,62.2,57.7,30.06,SW,225,2.0,5.0,85,0.00,,,0.00,meteohub,2013-08-11 11:05:00,
2013-08-11 06:10:00,62.4,57.9,30.06,South,180,2.0,5.0,85,0.00,,,0.00,meteohub,2013-08-11 11:10:00,
2013-08-11 06:16:00,62.6,57.4,30.06,SE,135,2.0,4.0,83,0.00,,,0.00,meteohub,2013-08-11 11:16:00,
2013-08-11 06:21:00,62.4,57.9,30.06,South,180,0.0,3.0,85,0.00,,,0.00,meteohub,2013-08-11 11:21:00,
2013-08-11 06:27:00,62.4,57.9,30.06,South,180,2.0,3.0,85,0.00,,,0.00,meteohub,2013-08-11 11:27:00,
2013-08-11 06:32:00,62.4,57.9,30.06,South,180,4.0,4.0,85,0.00,,,0.00,meteohub,2013-08-11 11:32:00,
2013-08-11 06:37:00,62.8,57.6,30.06,South,180,5.0,5.0,83,0.00,,,0.00,meteohub,2013-08-11 11:37:00,
2013-08-11 06:42:00,63.3,57.7,30.06,West,270,5.0,6.0,82,0.00,,,0.00,meteohub,2013-08-11 11:42:00,
2013-08-11 06:47:00,63.9,57.9,30.06,South,180,1.0,6.0,81,0.00,,,0.00,meteohub,2013-08-11 11:47:00,
2013-08-11 06:52:00,63.9,57.9,30.06,South,180,2.0,6.0,81,0.00,,,0.00,meteohub,2013-08-11 11:52:00,
2013-08-11 06:57:00,64.0,58.1,30.06,South,180,2.0,5.0,81,0.00,,,0.00,meteohub,2013-08-11 11:57:00,
2013-08-11 07:02:00,64.0,58.1,30.05,SW,225,3.0,4.0,81,0.00,,,0.00,meteohub,2013-08-11 12:02:00,
2013-08-11 07:07:00,64.0,58.1,30.05,South,180,2.0,4.0,81,0.00,,,0.00,meteohub,2013-08-11 12:07:00,
2013-08-11 07:12:00,64.0,58.5,30.05,SW,225,4.0,4.0,82,0.00,,,0.00,meteohub,2013-08-11 12:12:00,
2013-08-11 07:17:00,64.2,58.3,30.06,SW,225,5.0,5.0,81,0.00,,,0.00,meteohub,2013-08-11 12:17:00,
2013-08-11 07:22:00,64.6,58.3,30.05,SW,225,4.0,5.0,80,0.00,,,0.00,meteohub,2013-08-11 12:22:00,
2013-08-11 07:27:00,64.6,57.9,30.06,SW,225,4.0,5.0,79,0.00,,,0.00,meteohub,2013-08-11 12:27:00,
2013-08-11 07:33:00,64.6,58.3,30.06,SW,225,4.0,5.0,80,0.00,,,0.00,meteohub,2013-08-11 12:33:00,
2013-08-11 07:39:00,64.4,58.5,30.06,SW,225,4.0,5.0,81,0.00,,,0.00,meteohub,2013-08-11 12:39:00,
2013-08-11 07:45:00,64.4,59.2,30.06,South,180,5.0,5.0,83,0.00,,,0.00,meteohub,2013-08-11 12:45:00,
2013-08-11 07:50:00,64.2,59.0,30.06,SW,225,3.0,5.0,83,0.00,,,0.00,meteohub,2013-08-11 12:50:00,
2013-08-11 07:55:00,64.0,59.2,30.06,SW,225,3.0,5.0,84,0.00,,,0.00,meteohub,2013-08-11 12:55:00,
2013-08-11 08:00:00,64.0,58.8,30.06,SW,225,2.0,5.0,83,0.00,,,0.00,meteohub,2013-08-11 13:00:00,
2013-08-11 08:05:00,64.2,59.0,30.06,SW,225,3.0,4.0,83,0.00,,,0.00,meteohub,2013-08-11 13:05:00,
2013-08-11 08:10:00,64.4,59.5,30.06,SW,225,3.0,4.0,84,0.00,,,0.00,meteohub,2013-08-11 13:10:00,
2013-08-11 08:15:00,64.2,59.0,30.06,South,180,2.0,4.0,83,0.00,,,0.00,meteohub,2013-08-11 13:15:00,
2013-08-11 08:21:00,64.2,59.4,30.06,South,180,1.0,4.0,84,0.00,,,0.00,meteohub,2013-08-11 13:21:00,
2013-08-11 08:26:00,64.2,59.4,30.06,East,90,2.0,4.0,84,0.00,,,0.00,meteohub,2013-08-11 13:26:00,
2013-08-11 08:31:00,64.2,59.4,30.06,South,180,2.0,3.0,84,0.00,,,0.00,meteohub,2013-08-11 13:31:00,
2013-08-11 08:36:00,64.2,59.4,30.06,South,180,2.0,3.0,84,0.00,,,0.00,meteohub,2013-08-11 13:36:00,
2013-08-11 08:42:00,64.2,59.5,30.06,South,180,3.0,3.0,85,0.00,,,0.00,meteohub,2013-08-11 13:42:00,
2013-08-11 08:47:00,63.9,59.5,30.06,South,180,3.0,3.0,86,0.00,,,0.00,meteohub,2013-08-11 13:47:00,
2013-08-11 08:52:00,63.7,59.7,30.06,SE,135,2.0,3.0,87,0.00,,,0.00,meteohub,2013-08-11 13:52:00,
2013-08-11 08:57:00,63.7,60.1,30.06,SE,135,2.0,4.0,88,0.00,,,0.00,meteohub,2013-08-11 13:57:00,
2013-08-11 09:02:00,63.5,60.3,30.06,SE,135,2.0,4.0,89,0.00,,,0.00,meteohub,2013-08-11 14:02:00,
2013-08-11 09:07:00,63.3,60.1,30.06,SE,135,2.0,4.0,89,0.00,,,0.00,meteohub,2013-08-11 14:07:00,
2013-08-11 09:12:00,63.1,59.9,30.06,ESE,113,4.0,4.0,89,0.00,,,0.00,meteohub,2013-08-11 14:12:00,
2013-08-11 09:17:00,63.1,60.1,30.06,SE,135,2.0,4.0,90,0.00,,,0.00,meteohub,2013-08-11 14:17:00,
2013-08-11 09:22:00,63.3,60.3,30.06,SE,135,4.0,4.0,90,0.00,,,0.00,meteohub,2013-08-11 14:22:00,
2013-08-11 09:28:00,63.7,60.6,30.06,SE,135,2.0,4.0,90,0.00,,,0.00,meteohub,2013-08-11 14:28:00,
2013-08-11 09:34:00,64.8,61.5,30.06,SE,135,5.0,5.0,89,0.00,,,0.00,meteohub,2013-08-11 14:34:00,
2013-08-11 09:39:00,66.6,62.2,30.05,SE,135,6.0,6.0,86,0.00,,,0.00,meteohub,2013-08-11 14:39:00,
2013-08-11 09:45:00,67.3,61.2,30.04,SE,135,7.0,7.0,81,0.00,,,0.00,meteohub,2013-08-11 14:45:00,
2013-08-11 09:50:00,66.7,60.4,30.04,SE,135,5.0,8.0,80,0.00,,,0.00,meteohub,2013-08-11 14:50:00,
2013-08-11 09:55:00,66.6,61.2,30.05,SE,135,4.0,8.0,83,0.00,,,0.00,meteohub,2013-08-11 14:55:00,
2013-08-11 10:02:00,66.4,61.3,30.04,SE,135,4.0,7.0,84,0.00,,,0.00,meteohub,2013-08-11 15:02:00,
2013-08-11 10:07:00,66.4,61.3,30.04,SE,135,5.0,7.0,84,0.00,,,0.00,meteohub,2013-08-11 15:07:00,
2013-08-11 10:12:00,66.2,61.2,30.05,SE,135,7.0,7.0,84,0.00,,,0.00,meteohub,2013-08-11 15:12:00,
2013-08-11 10:17:00,66.0,61.7,30.05,SE,135,4.0,7.0,86,0.00,,,0.00,meteohub,2013-08-11 15:17:00,
2013-08-11 10:22:00,65.8,61.5,30.05,SE,135,4.0,7.0,86,0.00,,,0.00,meteohub,2013-08-11 15:22:00,
2013-08-11 10:27:00,66.0,61.7,30.06,South,180,5.0,7.0,86,0.00,,,0.00,meteohub,2013-08-11 15:27:00,
2013-08-11 10:32:00,66.2,61.9,30.06,SE,135,4.0,6.0,86,0.00,,,0.00,meteohub,2013-08-11 15:32:00,
2013-08-11 10:37:00,66.6,62.2,30.05,South,180,4.0,5.0,86,0.00,,,0.00,meteohub,2013-08-11 15:37:00,
2013-08-11 10:42:00,66.9,62.6,30.05,SE,135,3.0,5.0,86,0.00,,,0.00,meteohub,2013-08-11 15:42:00,
2013-08-11 10:48:00,66.9,62.6,30.05,East,90,3.0,5.0,86,0.00,,,0.00,meteohub,2013-08-11 15:48:00,
2013-08-11 10:53:00,67.3,63.0,30.05,South,180,4.0,5.0,86,0.00,,,0.00,meteohub,2013-08-11 15:53:00,
2013-08-11 10:58:00,67.3,63.0,30.05,SE,135,4.0,5.0,86,0.00,,,0.00,meteohub,2013-08-11 15:58:00,
2013-08-11 11:03:00,67.5,63.1,30.05,SE,135,4.0,4.0,86,0.00,,,0.00,meteohub,2013-08-11 16:03:00,
2013-08-11 11:09:00,67.6,63.3,30.05,South,180,4.0,6.0,86,0.00,,,0.00,meteohub,2013-08-11 16:09:00,
2013-08-11 11:14:00,67.8,63.5,30.05,South,180,2.0,6.0,86,0.00,,,0.00,meteohub,2013-08-11 16:14:00,
2013-08-11 11:20:00,68.4,63.7,30.05,South,180,4.0,6.0,85,0.00,,,0.00,meteohub,2013-08-11 16:20:00,
2013-08-11 11:25:00,68.9,63.9,30.05,East,90,3.0,4.0,84,0.00,,,0.00,meteohub,2013-08-11 16:25:00,
2013-08-11 11:31:00,69.8,64.4,30.05,East,90,4.0,5.0,83,0.00,,,0.00,meteohub,2013-08-11 16:31:00,
2013-08-11 11:36:00,70.5,64.4,30.05,South,180,4.0,7.0,81,0.00,,,0.00,meteohub,2013-08-11 16:36:00,
2013-08-11 11:41:00,70.9,65.1,30.04,SW,225,4.0,7.0,82,0.00,,,0.00,meteohub,2013-08-11 16:41:00,
2013-08-11 11:46:00,71.2,64.8,30.04,South,180,5.0,7.0,80,0.00,,,0.00,meteohub,2013-08-11 16:46:00,
2013-08-11 11:51:00,71.2,64.0,30.04,SW,225,6.0,7.0,78,0.00,,,0.00,meteohub,2013-08-11 16:51:00,
2013-08-11 11:57:00,71.2,64.4,30.04,South,180,5.0,8.0,79,0.00,,,0.00,meteohub,2013-08-11 16:57:00,
2013-08-11 12:02:00,71.4,64.9,30.04,SW,225,4.0,8.0,80,0.00,,,0.00,meteohub,2013-08-11 17:02:00,
2013-08-11 12:07:00,71.8,64.9,30.04,SW,225,8.0,8.0,79,0.00,,,0.00,meteohub,2013-08-11 17:07:00,
2013-08-11 12:12:00,72.0,64.8,30.04,South,180,6.0,8.0,78,0.00,,,0.00,meteohub,2013-08-11 17:12:00,
2013-08-11 12:17:00,72.5,64.6,30.04,SW,225,6.0,9.0,76,0.00,,,0.00,meteohub,2013-08-11 17:17:00,
2013-08-11 12:22:00,72.1,63.9,30.03,SW,225,8.0,9.0,75,0.00,,,0.00,meteohub,2013-08-11 17:22:00,
2013-08-11 12:28:00,72.0,64.8,30.03,SW,225,5.0,9.0,78,0.00,,,0.00,meteohub,2013-08-11 17:28:00,
2013-08-11 12:33:00,72.5,65.3,30.03,SW,225,8.0,9.0,78,0.00,,,0.00,meteohub,2013-08-11 17:33:00,
2013-08-11 12:38:00,73.4,66.2,30.02,SW,225,9.0,9.0,78,0.00,,,0.00,meteohub,2013-08-11 17:38:00,
2013-08-11 12:44:00,74.5,66.7,30.02,SW,225,12.0,12.0,77,0.00,,,0.00,meteohub,2013-08-11 17:44:00,
2013-08-11 12:50:00,74.8,66.4,30.01,SW,225,12.0,12.0,75,0.00,,,0.00,meteohub,2013-08-11 17:50:00,
2013-08-11 12:55:00,74.8,66.0,30.01,SW,225,5.0,12.0,74,0.00,,,0.00,meteohub,2013-08-11 17:55:00,
2013-08-11 13:00:00,74.5,65.7,30.01,SW,225,9.0,12.0,74,0.00,,,0.00,meteohub,2013-08-11 18:00:00,
2013-08-11 13:05:00,74.7,66.2,30.01,SW,225,12.0,13.0,75,0.00,,,0.00,meteohub,2013-08-11 18:05:00,
2013-08-11 13:11:00,76.1,66.4,30.00,NW,315,11.0,13.0,72,0.00,,,0.00,meteohub,2013-08-11 18:11:00,
2013-08-11 13:17:00,76.8,66.7,30.00,SW,225,11.0,15.0,71,0.00,,,0.00,meteohub,2013-08-11 18:17:00,
2013-08-11 13:22:00,77.9,66.9,30.00,SW,225,8.0,15.0,69,0.00,,,0.00,meteohub,2013-08-11 18:22:00,
2013-08-11 13:27:00,77.9,66.0,29.99,West,270,11.0,15.0,67,0.00,,,0.00,meteohub,2013-08-11 18:27:00,
2013-08-11 13:32:00,77.7,65.5,29.99,West,270,11.0,15.0,66,0.00,,,0.00,meteohub,2013-08-11 18:32:00,
2013-08-11 13:38:00,77.5,66.2,29.99,SW,225,8.0,15.0,68,0.00,,,0.00,meteohub,2013-08-11 18:38:00,
2013-08-11 13:43:00,77.5,65.7,29.99,West,270,7.0,15.0,67,0.00,,,0.00,meteohub,2013-08-11 18:43:00,
2013-08-11 13:48:00,78.4,65.7,29.99,West,270,14.0,14.0,65,0.00,,,0.00,meteohub,2013-08-11 18:48:00,
2013-08-11 13:53:00,78.3,65.5,29.99,SW,225,10.0,15.0,65,0.00,,,0.00,meteohub,2013-08-11 18:53:00,
2013-08-11 13:59:00,77.7,65.5,29.99,SW,225,9.0,15.0,66,0.00,,,0.00,meteohub,2013-08-11 18:59:00,
2013-08-11 14:04:00,78.4,66.9,29.99,SW,225,11.0,17.0,68,0.00,,,0.00,meteohub,2013-08-11 19:04:00,
2013-08-11 14:09:00,79.0,66.2,29.99,West,270,8.0,17.0,65,0.00,,,0.00,meteohub,2013-08-11 19:09:00,
2013-08-11 14:14:00,79.2,66.4,29.99,West,270,7.0,17.0,65,0.00,,,0.00,meteohub,2013-08-11 19:14:00,
2013-08-11 14:20:00,78.8,66.0,29.99,West,270,10.0,11.0,65,0.00,,,0.00,meteohub,2013-08-11 19:20:00,
2013-08-11 14:25:00,77.9,66.0,29.99,NW,315,8.0,11.0,67,0.00,,,0.00,meteohub,2013-08-11 19:25:00,
2013-08-11 14:30:00,77.5,66.2,29.99,WSW,248,6.0,11.0,68,0.00,,,0.00,meteohub,2013-08-11 19:30:00,
2013-08-11 14:36:00,77.4,66.7,30.00,NW,315,4.0,11.0,70,0.00,,,0.00,meteohub,2013-08-11 19:36:00,
2013-08-11 14:42:00,77.0,66.4,30.00,NW,315,8.0,9.0,70,0.00,,,0.00,meteohub,2013-08-11 19:42:00,
2013-08-11 14:47:00,77.0,66.9,30.00,West,270,4.0,9.0,71,0.00,,,0.00,meteohub,2013-08-11 19:47:00,
2013-08-11 14:52:00,77.9,67.8,29.99,NW,315,4.0,8.0,71,0.00,,,0.00,meteohub,2013-08-11 19:52:00,
2013-08-11 14:57:00,78.4,67.8,30.00,North,0,4.0,8.0,70,0.00,,,0.00,meteohub,2013-08-11 19:57:00,
2013-08-11 15:02:00,78.3,66.7,29.99,NW,315,4.0,8.0,68,0.00,,,0.00,meteohub,2013-08-11 20:02:00,
2013-08-11 15:07:00,78.6,68.4,29.99,NW,315,6.0,12.0,71,0.00,,,0.00,meteohub,2013-08-11 20:07:00,
2013-08-11 15:13:00,78.6,68.0,30.00,NW,315,8.0,12.0,70,0.00,,,0.00,meteohub,2013-08-11 20:13:00,
2013-08-11 15:19:00,79.2,67.6,29.99,SW,225,5.0,12.0,68,0.00,,,0.00,meteohub,2013-08-11 20:19:00,
2013-08-11 15:24:00,79.3,67.5,29.99,North,0,6.0,8.0,67,0.00,,,0.00,meteohub,2013-08-11 20:24:00,
2013-08-11 15:29:00,79.7,67.3,29.99,SW,225,7.0,11.0,66,0.00,,,0.00,meteohub,2013-08-11 20:29:00,
2013-08-11 15:35:00,79.5,67.6,29.99,NW,315,8.0,11.0,67,0.00,,,0.00,meteohub,2013-08-11 20:35:00,
2013-08-11 15:40:00,79.2,67.3,29.98,West,270,4.0,10.0,67,0.00,,,0.00,meteohub,2013-08-11 20:40:00,
2013-08-11 15:45:00,79.5,67.6,29.99,North,0,10.0,10.0,67,0.00,,,0.00,meteohub,2013-08-11 20:45:00,
2013-08-11 15:51:00,78.8,66.9,29.98,NW,315,3.0,10.0,67,0.00,,,0.00,meteohub,2013-08-11 20:51:00,
2013-08-11 15:57:00,79.3,67.8,29.98,NE,45,2.0,10.0,68,0.00,,,0.00,meteohub,2013-08-11 20:57:00,
2013-08-11 16:02:00,79.5,68.0,29.98,West,270,4.0,10.0,68,0.00,,,0.00,meteohub,2013-08-11 21:02:00,
2013-08-11 16:07:00,79.9,67.5,29.98,NW,315,6.0,8.0,66,0.00,,,0.00,meteohub,2013-08-11 21:07:00,
2013-08-11 16:12:00,79.9,67.5,29.98,North,0,6.0,11.0,66,0.00,,,0.00,meteohub,2013-08-11 21:12:00,
2013-08-11 16:17:00,79.9,68.0,29.98,West,270,5.0,11.0,67,0.00,,,0.00,meteohub,2013-08-11 21:17:00,
2013-08-11 16:23:00,79.3,66.9,29.99,West,270,4.0,11.0,66,0.00,,,0.00,meteohub,2013-08-11 21:23:00,
2013-08-11 16:29:00,78.4,67.8,29.99,West,270,3.0,7.0,70,0.00,,,0.00,meteohub,2013-08-11 21:29:00,
2013-08-11 16:34:00,77.9,68.2,29.99,North,0,4.0,7.0,72,0.00,,,0.00,meteohub,2013-08-11 21:34:00,
2013-08-11 16:40:00,77.5,68.2,29.99,North,0,1.0,6.0,73,0.00,,,0.00,meteohub,2013-08-11 21:40:00,
2013-08-11 16:45:00,77.7,68.0,29.99,North,0,4.0,5.0,72,0.00,,,0.00,meteohub,2013-08-11 21:45:00,
2013-08-11 16:51:00,77.5,68.2,29.99,West,270,2.0,5.0,73,0.00,,,0.00,meteohub,2013-08-11 21:51:00,
2013-08-11 16:56:00,77.7,68.4,29.98,North,0,4.0,5.0,73,0.00,,,0.00,meteohub,2013-08-11 21:56:00,
2013-08-11 17:01:00,77.5,68.2,29.98,West,270,2.0,5.0,73,0.00,,,0.00,meteohub,2013-08-11 22:01:00,
2013-08-11 17:06:00,77.5,68.5,29.98,West,270,7.0,7.0,74,0.00,,,0.00,meteohub,2013-08-11 22:06:00,
2013-08-11 17:11:00,77.5,68.5,29.98,SW,225,7.0,7.0,74,0.00,,,0.00,meteohub,2013-08-11 22:11:00,
2013-08-11 17:17:00,77.4,68.4,29.97,West,270,2.0,7.0,74,0.00,,,0.00,meteohub,2013-08-11 22:17:00,
2013-08-11 17:22:00,77.4,68.0,29.97,West,270,3.0,7.0,73,0.00,,,0.00,meteohub,2013-08-11 22:22:00,
2013-08-11 17:27:00,77.2,68.2,29.97,West,270,2.0,7.0,74,0.00,,,0.00,meteohub,2013-08-11 22:27:00,
2013-08-11 17:32:00,77.0,68.0,29.97,West,270,0.0,7.0,74,0.00,,,0.00,meteohub,2013-08-11 22:32:00,
2013-08-11 17:38:00,77.2,68.7,29.97,SW,225,2.0,7.0,75,0.00,,,0.00,meteohub,2013-08-11 22:38:00,
2013-08-11 17:43:00,77.2,68.2,29.97,West,270,4.0,7.0,74,0.00,,,0.00,meteohub,2013-08-11 22:43:00,
2013-08-11 17:49:00,77.4,68.9,29.97,West,270,0.0,4.0,75,0.00,,,0.00,meteohub,2013-08-11 22:49:00,
2013-08-11 17:54:00,77.5,68.5,29.97,NW,315,2.0,4.0,74,0.00,,,0.00,meteohub,2013-08-11 22:54:00,
2013-08-11 17:59:00,77.5,68.5,29.97,NW,315,2.0,4.0,74,0.00,,,0.00,meteohub,2013-08-11 22:59:00,
2013-08-11 18:04:00,77.4,68.9,29.97,NE,45,0.0,4.0,75,0.00,,,0.00,meteohub,2013-08-11 23:04:00,
2013-08-11 18:09:00,77.2,69.1,29.96,South,180,2.0,4.0,76,0.00,,,0.00,meteohub,2013-08-11 23:09:00,
2013-08-11 18:14:00,76.8,69.1,29.96,West,270,2.0,3.0,77,0.00,,,0.00,meteohub,2013-08-11 23:14:00,
2013-08-11 18:19:00,76.5,68.7,29.96,NW,315,1.0,3.0,77,0.00,,,0.00,meteohub,2013-08-11 23:19:00,
2013-08-11 18:25:00,75.9,69.3,29.96,North,0,0.0,3.0,80,0.00,,,0.00,meteohub,2013-08-11 23:25:00,
2013-08-11 18:30:00,75.7,69.1,29.96,West,270,0.0,3.0,80,0.00,,,0.00,meteohub,2013-08-11 23:30:00,
2013-08-11 18:35:00,75.7,69.1,29.96,West,270,0.0,1.0,80,0.00,,,0.00,meteohub,2013-08-11 23:35:00,
2013-08-11 18:40:00,76.1,69.4,29.96,West,270,0.0,0.0,80,0.00,,,0.00,meteohub,2013-08-11 23:40:00,
2013-08-11 18:45:00,76.3,69.6,29.96,NW,315,0.0,0.0,80,0.00,,,0.00,meteohub,2013-08-11 23:45:00,
2013-08-11 18:51:00,76.1,69.4,29.95,North,0,0.0,0.0,80,0.00,,,0.00,meteohub,2013-08-11 23:51:00,
2013-08-11 18:56:00,75.6,68.9,29.95,North,0,0.0,0.0,80,0.00,,,0.00,meteohub,2013-08-11 23:56:00,
2013-08-11 19:01:00,75.0,68.7,29.96,North,0,0.0,0.0,81,0.00,,,0.00,meteohub,2013-08-12 00:01:00,
2013-08-11 19:06:00,74.7,68.4,29.96,North,0,2.0,0.0,81,0.00,,,0.00,meteohub,2013-08-12 00:06:00,
2013-08-11 19:12:00,74.1,68.2,29.96,North,0,2.0,2.0,82,0.00,,,0.00,meteohub,2013-08-12 00:12:00,
2013-08-11 19:17:00,73.8,68.5,29.96,North,0,0.0,3.0,84,0.00,,,0.00,meteohub,2013-08-12 00:17:00,
2013-08-11 19:22:00,73.4,68.5,29.96,NE,45,0.0,3.0,85,0.00,,,0.00,meteohub,2013-08-12 00:22:00,
2013-08-11 19:27:00,73.0,67.6,29.97,NE,45,0.0,3.0,83,0.00,,,0.00,meteohub,2013-08-12 00:27:00,
2013-08-11 19:33:00,72.7,67.3,29.97,North,0,0.0,2.0,83,0.00,,,0.00,meteohub,2013-08-12 00:33:00,
2013-08-11 19:38:00,72.3,66.9,29.96,East,90,2.0,2.0,83,0.00,,,0.00,meteohub,2013-08-12 00:38:00,
2013-08-11 19:44:00,72.3,66.9,29.96,NE,45,2.0,2.0,83,0.00,,,0.00,meteohub,2013-08-12 00:44:00,
2013-08-11 19:49:00,72.3,66.6,29.96,NE,45,2.0,3.0,82,0.00,,,0.00,meteohub,2013-08-12 00:49:00,
2013-08-11 19:55:00,72.5,66.4,29.96,NE,45,0.0,3.0,81,0.00,,,0.00,meteohub,2013-08-12 00:55:00,
2013-08-11 20:00:00,72.3,66.6,29.96,NE,45,2.0,3.0,82,0.00,,,0.00,meteohub,2013-08-12 01:00:00,
2013-08-11 20:05:00,72.1,66.4,29.97,NE,45,2.0,2.0,82,0.00,,,0.00,meteohub,2013-08-12 01:05:00,
2013-08-11 20:10:00,72.1,66.4,29.97,NE,45,3.0,3.0,82,0.00,,,0.00,meteohub,2013-08-12 01:10:00,
2013-08-11 20:16:00,72.3,66.6,29.96,East,90,2.0,3.0,82,0.00,,,0.00,meteohub,2013-08-12 01:16:00,
2013-08-11 20:21:00,72.3,66.2,29.96,SE,135,0.0,3.0,81,0.00,,,0.00,meteohub,2013-08-12 01:21:00,
2013-08-11 20:26:00,72.3,66.2,29.96,SE,135,0.0,3.0,81,0.00,,,0.00,meteohub,2013-08-12 01:26:00,
2013-08-11 20:31:00,72.1,66.4,29.96,NE,45,2.0,2.0,82,0.00,,,0.00,meteohub,2013-08-12 01:31:00,
2013-08-11 20:36:00,71.8,66.0,29.96,NE,45,0.0,2.0,82,0.00,,,0.00,meteohub,2013-08-12 01:36:00,
2013-08-11 20:42:00,71.8,66.0,29.96,East,90,0.0,2.0,82,0.00,,,0.00,meteohub,2013-08-12 01:42:00,
2013-08-11 20:47:00,71.8,66.0,29.96,NE,45,0.0,2.0,82,0.00,,,0.00,meteohub,2013-08-12 01:47:00,
2013-08-11 20:52:00,71.8,66.0,29.96,NE,45,0.0,0.0,82,0.00,,,0.00,meteohub,2013-08-12 01:52:00,
2013-08-11 20:57:00,71.8,66.0,29.96,SE,135,2.0,0.0,82,0.00,,,0.00,meteohub,2013-08-12 01:57:00,
2013-08-11 21:02:00,71.8,66.0,29.96,East,90,3.0,3.0,82,0.00,,,0.00,meteohub,2013-08-12 02:02:00,
2013-08-11 21:07:00,72.0,66.2,29.96,SE,135,3.0,3.0,82,0.00,,,0.00,meteohub,2013-08-12 02:07:00,
2013-08-11 21:13:00,71.6,65.8,29.96,SE,135,3.0,3.0,82,0.00,,,0.00,meteohub,2013-08-12 02:13:00,
2013-08-11 21:18:00,71.6,65.8,29.96,SE,135,3.0,3.0,82,0.00,,,0.00,meteohub,2013-08-12 02:18:00,
2013-08-11 21:24:00,71.4,66.0,29.96,SE,135,2.0,3.0,83,0.00,,,0.00,meteohub,2013-08-12 02:24:00,
2013-08-11 21:29:00,71.4,66.4,29.97,SE,135,2.0,3.0,84,0.00,,,0.00,meteohub,2013-08-12 02:29:00,
2013-08-11 21:35:00,71.6,66.2,29.97,East,90,2.0,3.0,83,0.00,,,0.00,meteohub,2013-08-12 02:35:00,
2013-08-11 21:40:00,71.4,66.4,29.97,East,90,2.0,3.0,84,0.00,,,0.00,meteohub,2013-08-12 02:40:00,
2013-08-11 21:46:00,71.4,66.4,29.97,South,180,2.0,3.0,84,0.00,,,0.00,meteohub,2013-08-12 02:46:00,
2013-08-11 21:52:00,70.9,66.2,29.97,SE,135,3.0,3.0,85,0.00,,,0.00,meteohub,2013-08-12 02:52:00,
2013-08-11 21:57:00,70.5,66.4,29.97,SE,135,4.0,4.0,87,0.00,,,0.00,meteohub,2013-08-12 02:57:00,
2013-08-11 22:02:00,70.5,67.1,29.97,SE,135,4.0,4.0,89,0.00,,,0.00,meteohub,2013-08-12 03:02:00,
2013-08-11 22:07:00,70.5,67.1,29.97,SE,135,4.0,5.0,89,0.00,,,0.00,meteohub,2013-08-12 03:07:00,
2013-08-11 22:13:00,70.5,67.1,29.97,ESE,113,6.0,6.0,89,0.00,,,0.00,meteohub,2013-08-12 03:13:00,
2013-08-11 22:19:00,70.3,67.6,29.96,SE,135,4.0,6.0,91,0.00,,,0.00,meteohub,2013-08-12 03:19:00,
2013-08-11 22:24:00,70.3,67.6,29.96,East,90,4.0,6.0,91,0.00,,,0.00,meteohub,2013-08-12 03:24:00,
2013-08-11 22:29:00,70.2,67.5,29.97,SE,135,4.0,6.0,91,0.00,,,0.00,meteohub,2013-08-12 03:29:00,
2013-08-11 22:35:00,70.5,67.5,29.96,ESE,113,4.0,5.0,90,0.00,,,0.00,meteohub,2013-08-12 03:35:00,
2013-08-11 22:40:00,70.7,67.3,29.96,SE,135,4.0,5.0,89,0.00,,,0.00,meteohub,2013-08-12 03:40:00,
2013-08-11 22:45:00,71.1,66.9,29.96,East,90,4.0,5.0,87,0.00,,,0.00,meteohub,2013-08-12 03:45:00,
2013-08-11 22:50:00,71.1,66.7,29.96,SE,135,4.0,5.0,86,0.00,,,0.00,meteohub,2013-08-12 03:50:00,
2013-08-11 22:56:00,70.9,66.6,29.97,East,90,3.0,4.0,86,0.00,,,0.00,meteohub,2013-08-12 03:56:00,
2013-08-11 23:01:00,70.9,66.6,29.96,SE,135,4.0,4.0,86,0.00,,,0.00,meteohub,2013-08-12 04:01:00,
2013-08-11 23:02:00,70.9,66.6,29.96,SE,135,4.0,4.0,86,0.00,,,0.00,meteohub,2013-08-12 04:02:00,
2013-08-11 23:03:00,70.9,66.6,29.96,SE,135,4.0,4.0,86,0.00,,,0.00,meteohub,2013-08-12 04:03:00,
2013-08-11 23:05:00,70.9,66.6,29.96,SE,135,4.0,4.0,86,0.00,,,0.00,meteohub,2013-08-12 04:05:00,
2013-08-11 23:06:00,70.9,66.6,29.96,SE,135,4.0,4.0,86,0.00,,,0.00,meteohub,2013-08-12 04:06:00,
2013-08-11 23:11:00,71.1,66.9,29.96,East,90,3.0,4.0,87,0.00,,,0.00,meteohub,2013-08-12 04:11:00,
2013-08-11 23:16:00,70.9,66.7,29.97,East,90,4.0,4.0,87,0.00,,,0.00,meteohub,2013-08-12 04:16:00,
2013-08-11 23:21:00,70.9,67.1,29.96,East,90,3.0,4.0,88,0.00,,,0.00,meteohub,2013-08-12 04:21:00,
2013-08-11 23:26:00,70.9,67.1,29.96,East,90,3.0,4.0,88,0.00,,,0.00,meteohub,2013-08-12 04:26:00,
2013-08-11 23:31:00,70.5,66.7,29.96,NE,45,3.0,4.0,88,0.00,,,0.00,meteohub,2013-08-12 04:31:00,
2013-08-11 23:36:00,70.2,66.7,29.96,East,90,2.0,3.0,89,0.00,,,0.00,meteohub,2013-08-12 04:36:00,
2013-08-11 23:41:00,70.2,67.1,29.97,East,90,2.0,3.0,90,0.00,,,0.00,meteohub,2013-08-12 04:41:00,
2013-08-11 23:46:00,70.2,67.1,29.96,East,90,3.0,3.0,90,0.00,,,0.00,meteohub,2013-08-12 04:46:00,
2013-08-11 23:51:00,70.3,67.3,29.96,East,90,4.0,4.0,90,0.00,,,0.00,meteohub,2013-08-12 04:51:00,
2013-08-11 23:56:00,70.3,67.3,29.96,East,90,4.0,4.0,90,0.00,,,0.00,meteohub,2013-08-12 04:56:00,